TJS-5

Last updated on Thu Oct 30 2025 00:02:51 GMT+0000 (Coordinated Universal Time)

1 44978U 20002A 25302.57880495 -.00000332 00000+0 00000+0 0 9991 2 44978 0.2277 89.9820 0005450 89.5238 174.5476 1.00274794 21389
UTC large
Height (km)
Speed (km/s)
/
Latitude / Longitude
Inclination (degrees)
Orbital Period (minutes)
Azimuth
Elevation
Range (km)
Doppler Factor

Next 0 passes for location: London (51.5072 / 0.1276)

Sorry there are no passes over London.